FENGYUN 1C DEB

Satellite information

Favourite Embed

Satellite Type and Status

DEBRISIN ORBIT

Key statistics

Satellite FENGYUN 1C DEB at a glance.

Uptime

9500

Days in orbit

Revolutions

≈ 14.0

Per day

Orbit

SSO

Sun Synchronous Orbit

Inclination

99.3

Latest

Satellite identification and parameters

Extended collection of information and parameters for FENGYUN 1C DEB.

Object identification

Identified? True

Debris? True

Object name: FENGYUN 1C DEB

International designator: 1999-025EVY

Object number (NORAD): 38832

Object ID (CCSDS): 38832

Country: PEOPLES REPUBLIC OF CHINA (PRC)

Current information (Y/N): Y

RCS size: SMALL

Orbital parameters

Period: 102.586 minutes

Inclination: 99.2796 deg

SMA: 7259.137 km

Apoapsis: 942.33 km

Periapsis: 819.675 km

RAAN: 172.3015 deg

Eccentricy: 0.0084483

Argument of periapsis: 272.786 deg

Mean anomaly: 86.3639 deg

Mean motion: 14.03703008 rev/day

Mean motion (dot): 0.00001619 rev/day2

B* drag term: 0.0010265 1/REarth

Two-line elements (TLE)

Creation date: May 12, 2025, 7:41 p.m.

Reference frame: TEME

Reference center: EARTH

Epoch: May 12, 2025, 8:04 a.m. UTC

TLE line 0: 0 FENGYUN 1C DEB

TLE line 1: 1 38832U 99025EVY 25132.33650940 .00001619 00000-0 10265-2 0 9995

TLE line 2: 2 38832 99.2796 172.3015 0084483 272.7860 86.3639 14.03703008607493

Live tracking on map

Real-time ground track for satellite FENGYUN 1C DEB.

In-orbit conjunctions

A list of the most updated potential collisions computed for object FENGYUN 1C DEB.

Target Orbit TCA Probability of collision Miss distance Type
COSMOS 397 DEB * LEO 2025-05-05 08:12:30 0.0001029692 422.0 (m) DEBRIS
SL-16 R/B LEO 2025-01-26 14:00:56 0.0001465609 356.0 (m) ROCKET BODY

Associated space launch

Chinese polar orbiting meteorological satellite

FENGYUN 1C DEB was lifted into orbit during the mission ‘Long March 4B | Feng Yun 1C’, on board a Long March 4B space rocket.

The launch took place on May 10, 1999, 1:33 a.m. from Launch Complex 7.

For more information about the launch, click the button.

Launch to space Long March 4B | Feng Yun 1C
Long March 4B | Feng Yun 1C

Agency: N/A

Status: Launch Successful

Launch date: May 10, 1999, 1:33 a.m. UTC

Rocket: Long March 4B

Launch pad: Launch Complex 7

Location: Taiyuan Satellite Launch Center, People's Republic of China

...

Latest news about this satellite

There are no fresh news available about this satellite. Check back as we update our databases every day.


Newsletter sign-up

Weekly statistics, charts and insights to help you stay on top of the space industry.